SAS977 EKCH-VTBS

Flight info

Callsign SAS977
Flight time N/A
Altitude 37000
Route SIMEG Z491 TELMO DCT KEKOV DCT POKEN DCT XELOL DCT LENOV DCT KENIN DCT REVDA DCT UDROS UM859 KARDE UN644 ROLIN N644 ODILI DCT BARAD M747 SUBUT T923 ERLEV M11 RODAR A909 TUNEK/N0476F390 A909 NINOP B801 RANAH L750 MERUN G452 LKN R460 BBN P646 PUPAM/N0482F410 P646 JJS Z12 DOPID P646 TARED DCT WILLA WILLA1C
Aircraft A359/H-SABDE1E3FGHIJ1J2J3J4J5M1P2RWXYZ/LB2D1

Departure

Time 2026-04-25 20:27
Airport Copenhagen Kastrup Airport (EKCH)

Arrival

Time N/A
Airport Suvarnabhumi Airport (VTBS)
Time Latitude Longitude Altitude Speed Heading
2026-04-25 19:34 55.62422 12.64912 30 ft 0 kts 89°
2026-04-25 20:13 55.62422 12.64883 30 ft 4 kts 89°
2026-04-25 20:14 55.62421 12.64837 30 ft 4 kts 91°
2026-04-25 20:14 55.62427 12.64795 29 ft 4 kts 137°
2026-04-25 20:14 55.62449 12.64777 30 ft 3 kts 177°
2026-04-25 20:14 55.62470 12.64775 30 ft 4 kts 174°
2026-04-25 20:15 55.62497 12.64772 30 ft 4 kts 179°
2026-04-25 20:15 55.62524 12.64771 30 ft 4 kts 179°
2026-04-25 20:15 55.62551 12.64770 30 ft 4 kts 179°
2026-04-25 20:15 55.62578 12.64769 30 ft 4 kts 179°
2026-04-25 20:16 55.62602 12.64769 30 ft 1 kts 179°
2026-04-25 20:19 55.62564 12.64770 30 ft 8 kts 178°
2026-04-25 20:19 55.62520 12.64772 30 ft 9 kts 179°
2026-04-25 20:20 55.62451 12.64777 30 ft 11 kts 176°
2026-04-25 20:20 55.62372 12.64783 30 ft 12 kts 178°
2026-04-25 20:20 55.62283 12.64790 30 ft 13 kts 177°
2026-04-25 20:20 55.62194 12.64751 30 ft 14 kts 211°
2026-04-25 20:21 55.62104 12.64649 30 ft 19 kts 212°
2026-04-25 20:21 55.61975 12.64519 30 ft 22 kts 195°
2026-04-25 20:21 55.61825 12.64532 30 ft 22 kts 168°
2026-04-25 20:21 55.61672 12.64547 30 ft 22 kts 200°
2026-04-25 20:22 55.61536 12.64406 30 ft 23 kts 212°
2026-04-25 20:22 55.61493 12.64357 30 ft 23 kts 213°
2026-04-25 20:22 55.61266 12.64097 30 ft 24 kts 212°
2026-04-25 20:22 55.61127 12.63935 30 ft 24 kts 213°
2026-04-25 20:23 55.60985 12.63773 30 ft 24 kts 212°
2026-04-25 20:23 55.60841 12.63607 30 ft 25 kts 213°
2026-04-25 20:23 55.60694 12.63439 30 ft 25 kts 213°
2026-04-25 20:23 55.60566 12.63253 30 ft 19 kts 222°
2026-04-25 20:24 55.60490 12.63139 30 ft 13 kts 216°
2026-04-25 20:24 55.60418 12.63136 30 ft 9 kts 148°
2026-04-25 20:24 55.60405 12.63159 30 ft 0 kts 130°
2026-04-25 20:25 55.60393 12.63184 30 ft 8 kts 130°
2026-04-25 20:25 55.60357 12.63261 31 ft 8 kts 127°
2026-04-25 20:25 55.60346 12.63337 32 ft 6 kts 72°
2026-04-25 20:25 55.60374 12.63400 31 ft 8 kts 41°
2026-04-25 20:26 55.60445 12.63507 30 ft 32 kts 41°
2026-04-25 20:26 55.60771 12.64011 32 ft 90 kts 40°
2026-04-25 20:26 55.61375 12.64941 31 ft 139 kts 40°
2026-04-25 20:26 55.62179 12.66197 319 ft 155 kts 35°
2026-04-25 20:27 55.62707 12.67027 677 ft 155 kts 34°
2026-04-25 20:27 55.63514 12.68276 1210 ft 156 kts 32°
2026-04-25 20:27 55.64385 12.69611 1514 ft 176 kts 32°
2026-04-25 20:27 55.65364 12.71098 1776 ft 196 kts 33°
2026-04-25 20:28 55.66473 12.72738 1980 ft 219 kts 34°
2026-04-25 20:28 55.67572 12.74731 2481 ft 235 kts 52°
2026-04-25 20:28 55.68060 12.77568 3136 ft 252 kts 82°
2026-04-25 20:28 55.67767 12.80705 3764 ft 264 kts 102°
2026-04-25 20:29 55.67159 12.83797 4426 ft 267 kts 104°
2026-04-25 20:29 55.66333 12.86791 5079 ft 274 kts 117°
2026-04-25 20:29 55.65288 12.89638 5718 ft 277 kts 120°
2026-04-25 20:29 55.64148 12.92428 6362 ft 282 kts 122°
2026-04-25 20:30 55.62946 12.95197 6974 ft 286 kts 124°
2026-04-25 20:30 55.61700 12.97981 7601 ft 291 kts 124°
2026-04-25 20:30 55.60422 13.00810 8123 ft 299 kts 124°
2026-04-25 20:30 55.59111 13.03715 8733 ft 305 kts 124°
2026-04-25 20:31 55.57802 13.06632 9366 ft 309 kts 124°
2026-04-25 20:31 55.56447 13.09669 9996 ft 313 kts 123°
2026-04-25 20:31 55.55070 13.12772 10330 ft 329 kts 124°
2026-04-25 20:31 55.53622 13.16031 10576 ft 346 kts 124°
2026-04-25 20:32 55.52098 13.19455 10826 ft 363 kts 124°
2026-04-25 20:32 55.50502 13.23035 11077 ft 379 kts 125°
2026-04-25 20:32 55.48658 13.26489 11471 ft 392 kts 133°
2026-04-25 20:32 55.46660 13.29802 12038 ft 398 kts 135°
2026-04-25 20:33 55.44578 13.33079 12588 ft 404 kts 136°
2026-04-25 20:33 55.42435 13.36342 13170 ft 410 kts 137°
2026-04-25 20:33 55.40247 13.39621 13725 ft 415 kts 137°
2026-04-25 20:33 55.38782 13.41806 14084 ft 419 kts 138°
2026-04-25 20:34 55.35804 13.46244 14889 ft 423 kts 138°
2026-04-25 20:34 55.33541 13.49623 15307 ft 430 kts 138°
2026-04-25 20:34 55.31245 13.53059 15755 ft 437 kts 138°
2026-04-25 20:34 55.28914 13.56541 16247 ft 443 kts 137°
2026-04-25 20:35 55.26579 13.60026 16688 ft 450 kts 137°
2026-04-25 20:35 55.24146 13.63654 17164 ft 457 kts 137°
2026-04-25 20:35 55.21739 13.67239 17639 ft 463 kts 137°
2026-04-25 20:35 55.19235 13.70961 18108 ft 469 kts 137°
2026-04-25 20:36 55.16730 13.74679 18493 ft 476 kts 137°
2026-04-25 20:36 55.14193 13.78437 18912 ft 480 kts 137°
2026-04-25 20:36 55.11663 13.82179 19350 ft 485 kts 137°
2026-04-25 20:36 55.09049 13.86038 20110 ft 482 kts 138°
2026-04-25 20:37 55.06531 13.89745 20787 ft 482 kts 138°
2026-04-25 20:37 55.03946 13.93548 21069 ft 490 kts 138°
2026-04-25 20:37 55.01325 13.97397 21455 ft 496 kts 138°
2026-04-25 20:37 54.98641 14.01333 21856 ft 500 kts 138°
2026-04-25 20:38 54.95998 14.05200 22105 ft 508 kts 139°
2026-04-25 20:38 54.93260 14.09200 22239 ft 519 kts 139°
2026-04-25 20:38 54.90481 14.13250 22674 ft 523 kts 139°
2026-04-25 20:38 54.87676 14.17330 23102 ft 527 kts 139°
2026-04-25 20:39 54.84857 14.21423 23498 ft 532 kts 139°
2026-04-25 20:39 54.82002 14.25561 23957 ft 534 kts 140°
2026-04-25 20:39 54.79166 14.29663 24676 ft 528 kts 140°
2026-04-25 20:39 54.77259 14.32415 24987 ft 529 kts 140°
2026-04-25 20:40 54.73494 14.37844 25397 ft 535 kts 140°
2026-04-25 20:40 54.70623 14.41974 25754 ft 538 kts 140°
2026-04-25 20:40 54.67738 14.46117 26111 ft 541 kts 139°
2026-04-25 20:40 54.64837 14.50275 26368 ft 544 kts 140°
2026-04-25 20:41 54.61895 14.54485 26430 ft 555 kts 140°
2026-04-25 20:41 54.58909 14.58748 26727 ft 558 kts 140°
2026-04-25 20:41 54.55911 14.63017 27159 ft 559 kts 140°
2026-04-25 20:41 54.52910 14.67284 27747 ft 557 kts 141°
2026-04-25 20:42 54.49933 14.71507 28411 ft 554 kts 140°
2026-04-25 20:42 54.46950 14.75732 28693 ft 558 kts 140°
2026-04-25 20:42 54.43942 14.79985 28959 ft 562 kts 140°
2026-04-25 20:42 54.40914 14.84258 29276 ft 565 kts 140°
2026-04-25 20:43 54.37871 14.88542 29583 ft 567 kts 140°
2026-04-25 20:43 54.34811 14.92844 29897 ft 570 kts 140°
2026-04-25 20:43 54.28609 15.01536 30006 ft 583 kts 141°
2026-04-25 20:44 54.25472 15.05917 30403 ft 581 kts 141°
2026-04-25 20:44 54.22356 15.10260 31014 ft 575 kts 142°
2026-04-25 20:44 54.19255 15.14572 31293 ft 576 kts 142°
2026-04-25 20:44 54.16136 15.18901 31448 ft 579 kts 142°
2026-04-25 20:45 54.13005 15.23239 31652 ft 581 kts 142°
2026-04-25 20:45 54.09864 15.27584 31879 ft 583 kts 142°
2026-04-25 20:45 54.06712 15.31934 32107 ft 584 kts 142°
2026-04-25 20:45 54.03554 15.36284 32376 ft 584 kts 142°
2026-04-25 20:46 54.00396 15.40625 32568 ft 584 kts 142°
2026-04-25 20:46 53.97219 15.44982 32560 ft 590 kts 142°
2026-04-25 20:46 53.94018 15.49364 32797 ft 590 kts 142°
2026-04-25 20:46 53.90831 15.53719 33215 ft 587 kts 142°
2026-04-25 20:47 53.87656 15.58049 33577 ft 584 kts 142°
2026-04-25 20:47 53.84491 15.62358 33870 ft 583 kts 142°
2026-04-25 20:47 53.81329 15.66653 34139 ft 582 kts 142°
2026-04-25 20:47 53.78175 15.70928 34388 ft 581 kts 142°
2026-04-25 20:48 53.75024 15.75192 34626 ft 579 kts 142°
2026-04-25 20:48 53.71879 15.79437 34876 ft 578 kts 142°
2026-04-25 20:48 53.68794 15.83594 35178 ft 573 kts 143°
2026-04-25 20:48 53.65678 15.87783 35342 ft 574 kts 143°
2026-04-25 20:49 53.62554 15.91976 35473 ft 574 kts 143°
2026-04-25 20:49 53.59427 15.96164 35660 ft 573 kts 143°
2026-04-25 20:49 53.56309 16.00332 35877 ft 572 kts 143°
2026-04-25 20:49 53.53198 16.04483 36070 ft 571 kts 143°
2026-04-25 20:50 53.50087 16.08627 36247 ft 570 kts 143°
2026-04-25 20:50 53.46981 16.12754 36419 ft 569 kts 143°
2026-04-25 20:50 53.43875 16.16875 36584 ft 568 kts 143°
2026-04-25 20:50 53.40778 16.20976 36818 ft 567 kts 143°
2026-04-25 20:51 53.34576 16.29164 36873 ft 569 kts 144°
2026-04-25 20:51 53.28332 16.37371 36882 ft 573 kts 144°
2026-04-25 20:52 53.23130 16.44189 36875 ft 572 kts 144°
2026-04-25 20:52 53.15810 16.53749 36884 ft 571 kts 144°
2026-04-25 20:53 53.09554 16.61883 36880 ft 569 kts 144°
2026-04-25 20:53 53.03309 16.69972 36883 ft 570 kts 144°
2026-04-25 20:54 52.97046 16.78051 36881 ft 570 kts 144°
2026-04-25 20:54 52.90778 16.86114 36884 ft 570 kts 144°
2026-04-25 20:55 52.84510 16.94143 36869 ft 568 kts 145°
2026-04-25 20:55 52.78309 17.02058 36890 ft 566 kts 145°
2026-04-25 20:56 52.72035 17.10036 36883 ft 566 kts 146°
2026-04-25 20:56 52.65785 17.17946 36883 ft 567 kts 146°
2026-04-25 20:57 52.59563 17.25795 36893 ft 567 kts 146°
2026-04-25 20:57 52.53312 17.33659 36881 ft 566 kts 146°
2026-04-25 20:58 52.47059 17.41491 36877 ft 565 kts 146°
2026-04-25 20:58 52.40803 17.49295 36878 ft 565 kts 146°
2026-04-25 20:59 52.34553 17.57067 36875 ft 564 kts 146°
2026-04-25 20:59 52.28308 17.64806 36875 ft 562 kts 147°
2026-04-25 21:00 52.24136 17.69960 36870 ft 562 kts 147°
2026-04-25 21:01 52.12718 17.83995 36866 ft 562 kts 147°
2026-04-25 21:01 52.06475 17.91637 36870 ft 561 kts 147°
2026-04-25 21:02 52.00241 17.99239 36859 ft 559 kts 147°
2026-04-25 21:02 51.94017 18.06798 36856 ft 558 kts 147°
2026-04-25 21:03 51.87797 18.14324 36857 ft 558 kts 147°
2026-04-25 21:03 51.81572 18.21833 36842 ft 558 kts 147°
2026-04-25 21:04 51.75356 18.29304 36864 ft 556 kts 148°
2026-04-25 21:04 51.69150 18.36734 36854 ft 556 kts 148°
2026-04-25 21:05 51.62938 18.44148 36853 ft 556 kts 148°
2026-04-25 21:05 51.56725 18.51534 36856 ft 556 kts 148°
2026-04-25 21:06 51.50497 18.58913 36842 ft 555 kts 147°
2026-04-25 21:06 51.44321 18.66211 36853 ft 555 kts 147°
2026-04-25 21:07 51.38098 18.73538 36840 ft 555 kts 147°
2026-04-25 21:07 51.31866 18.80849 36872 ft 555 kts 148°
2026-04-25 21:08 51.25638 18.88130 36843 ft 555 kts 148°
2026-04-25 21:08 51.19400 18.95397 36838 ft 554 kts 147°
2026-04-25 21:09 51.10074 19.06217 36851 ft 552 kts 147°
2026-04-25 21:09 51.03862 19.13393 36854 ft 552 kts 147°
2026-04-25 21:10 50.97641 19.20548 36864 ft 552 kts 148°
2026-04-25 21:10 50.91435 19.27667 36800 ft 549 kts 147°
2026-04-25 21:11 50.85267 19.34726 36858 ft 544 kts 147°
2026-04-25 21:11 50.79134 19.41716 36857 ft 543 kts 148°
2026-04-25 21:12 50.72998 19.48687 36859 ft 543 kts 148°
2026-04-25 21:12 50.68936 19.53288 36852 ft 543 kts 148°
2026-04-25 21:13 50.60745 19.62534 36835 ft 541 kts 148°
2026-04-25 21:13 50.54623 19.69417 36856 ft 541 kts 148°
2026-04-25 21:14 50.48535 19.76242 36866 ft 541 kts 148°
2026-04-25 21:14 50.42408 19.83090 36852 ft 541 kts 148°
2026-04-25 21:15 50.36292 19.89906 36862 ft 538 kts 148°
2026-04-25 21:15 50.30189 19.96682 36838 ft 537 kts 148°
2026-04-25 21:16 50.24113 20.03408 36860 ft 534 kts 148°
2026-04-25 21:16 50.19033 20.09012 36859 ft 534 kts 148°
2026-04-25 21:17 50.12966 20.15685 36860 ft 533 kts 148°
2026-04-25 21:17 50.06947 20.22284 36860 ft 533 kts 148°
2026-04-25 21:18 50.00882 20.28921 36831 ft 533 kts 148°
2026-04-25 21:18 49.94814 20.35535 36865 ft 532 kts 148°
2026-04-25 21:19 49.88748 20.42123 36866 ft 532 kts 148°
2026-04-25 21:19 49.82686 20.48689 36865 ft 531 kts 148°
2026-04-25 21:20 49.77651 20.54126 36865 ft 531 kts 148°
2026-04-25 21:20 49.70559 20.61764 36842 ft 531 kts 148°
2026-04-25 21:21 49.64496 20.68270 36894 ft 530 kts 149°
2026-04-25 21:21 49.58423 20.74767 36873 ft 533 kts 149°
2026-04-25 21:22 49.52328 20.81266 36877 ft 533 kts 149°
2026-04-25 21:22 49.46237 20.87752 36877 ft 533 kts 149°
2026-04-25 21:23 49.40136 20.94224 36871 ft 533 kts 149°
2026-04-25 21:23 49.34028 21.00674 36880 ft 532 kts 149°
2026-04-25 21:24 49.27850 21.06881 36880 ft 530 kts 152°
2026-04-25 21:24 49.21569 21.12784 36874 ft 529 kts 152°
2026-04-25 21:25 49.15300 21.18673 36876 ft 529 kts 152°
2026-04-25 21:25 49.09040 21.24607 36877 ft 529 kts 152°
2026-04-25 21:26 49.02845 21.30498 36875 ft 528 kts 152°
2026-04-25 21:26 48.96620 21.36401 36873 ft 527 kts 152°
2026-04-25 21:27 48.90392 21.42283 36877 ft 527 kts 152°
2026-04-25 21:27 48.84160 21.48149 36850 ft 527 kts 152°
2026-04-25 21:28 48.77919 21.54007 36874 ft 528 kts 152°
2026-04-25 21:28 48.71672 21.59859 36870 ft 528 kts 152°
2026-04-25 21:29 48.65417 21.65696 36874 ft 528 kts 152°
2026-04-25 21:29 48.59162 21.71514 36866 ft 528 kts 152°
2026-04-25 21:30 48.52899 21.77323 36869 ft 528 kts 152°
2026-04-25 21:30 48.47691 21.82144 36872 ft 529 kts 152°
2026-04-25 21:31 48.40345 21.88921 36869 ft 530 kts 152°
2026-04-25 21:31 48.34569 21.95841 36861 ft 536 kts 134°
2026-04-25 21:32 48.29613 22.04239 36869 ft 537 kts 132°
2026-04-25 21:32 48.24824 22.12841 36846 ft 537 kts 131°
2026-04-25 21:33 48.20045 22.21418 36870 ft 535 kts 132°
2026-04-25 21:33 48.15277 22.29876 36875 ft 535 kts 132°
2026-04-25 21:34 48.10455 22.38364 36879 ft 535 kts 132°
2026-04-25 21:34 48.05622 22.46837 36879 ft 536 kts 132°
2026-04-25 21:35 48.00779 22.55300 36884 ft 536 kts 132°
2026-04-25 21:35 47.95934 22.63748 36897 ft 536 kts 133°
2026-04-25 21:36 47.91087 22.72176 36892 ft 535 kts 133°
2026-04-25 21:36 47.86234 22.80590 36913 ft 536 kts 133°
2026-04-25 21:37 47.82191 22.87575 36904 ft 535 kts 133°
2026-04-25 21:37 47.76502 22.97366 36905 ft 535 kts 133°
2026-04-25 21:38 47.71628 23.05733 36922 ft 535 kts 133°
2026-04-25 21:38 47.66751 23.14072 36925 ft 535 kts 133°
2026-04-25 21:39 47.61862 23.22402 36911 ft 535 kts 133°
2026-04-25 21:39 47.57007 23.30655 36938 ft 535 kts 133°